This is the latest recevied weather packets stored in our database for station/object DB8NZ-11. If no packets are shown the sender has not sent any weather packets the latest 10 day(s).
| Time | Temp. | Humidity | Pressure | Rain* | Wind** | Luminosity | Snow |
|---|---|---|---|---|---|---|---|
| 1777569376 | 18.89° C | 19% | 1031.3 hPa | - | - | - | - |
| 1777568476 | 20° C | 18% | 1031.3 hPa | - | - | - | - |
| 1777567576 | 20° C | 17% | 1031.3 hPa | - | - | - | - |
| 1777566676 | 20.56° C | 17% | 1031.3 hPa | - | - | - | - |
| 1777565776 | 20.56° C | 16% | 1031.2 hPa | - | - | - | - |
| 1777564876 | 21.11° C | 16% | 1031.2 hPa | - | - | - | - |
| 1777563975 | 21.67° C | 15% | 1031.2 hPa | - | - | - | - |
| 1777563075 | 21.67° C | 15% | 1031.3 hPa | - | - | - | - |
| 1777562175 | 22.22° C | 15% | 1031.4 hPa | - | - | - | - |
| 1777561275 | 21.67° C | 16% | 1031.5 hPa | - | - | - | - |
| 1777560375 | 21.67° C | 15% | 1031.5 hPa | - | - | - | - |
| 1777559475 | 21.67° C | 16% | 1031.7 hPa | - | - | - | - |
| 1777558575 | 21.67° C | 16% | 1031.9 hPa | - | - | - | - |
| 1777557675 | 21.67° C | 16% | 1031.9 hPa | - | - | - | - |
| 1777556774 | 21.67° C | 18% | 1032 hPa | - | - | - | - |
| 1777555874 | 21.67° C | 16% | 1032.3 hPa | - | - | - | - |
| 1777554974 | 21.11° C | 15% | 1032.4 hPa | - | - | - | - |
| 1777554074 | 21.67° C | 16% | 1032.7 hPa | - | - | - | - |
| 1777553174 | 21.11° C | 15% | 1032.9 hPa | - | - | - | - |
| 1777552274 | 21.67° C | 15% | 1032.9 hPa | - | - | - | - |
| 1777551374 | 22.22° C | 16% | 1033 hPa | - | - | - | - |
| 1777550474 | 21.11° C | 17% | 1033.2 hPa | - | - | - | - |
| 1777549574 | 21.67° C | 16% | 1033.4 hPa | - | - | - | - |
| 1777548674 | 20° C | 15% | 1033.6 hPa | - | - | - | - |
| 1777547774 | 20.56° C | 16% | 1033.6 hPa | - | - | - | - |
* Rain since midnight (hover to see other rain measurements)
** Current wind speed in m/s (hover to see current wind gust speed)